This is the latest recevied weather packets stored in our database for station/object K3FAZ. If no packets are shown the sender has not sent any weather packets the latest 1 day(s).
| Time | Temp. | Humidity | Pressure | Rain* | Wind** | Luminosity | Snow |
|---|---|---|---|---|---|---|---|
| 1778031073 | 20° C | 51% | 1010.2 hPa | 0 mm | 1.79 m/s, 182° | 0 W/m² | - |
| 1778030769 | 20° C | 52% | 1010.3 hPa | 0 mm | 0.89 m/s, 206° | 0 W/m² | - |
| 1778030466 | 20° C | 51% | 1010.2 hPa | 0 mm | 1.34 m/s, 190° | 0 W/m² | - |
| 1778030164 | 20° C | 51% | 1010.1 hPa | 0 mm | 2.68 m/s, 192° | 0 W/m² | - |
| 1778029860 | 20.56° C | 50% | 1010 hPa | 0 mm | 2.68 m/s, 191° | 0 W/m² | - |
| 1778029554 | 20.56° C | 50% | 1010.2 hPa | 0 mm | 1.79 m/s, 191° | 0 W/m² | - |
| 1778029250 | 20.56° C | 49% | 1010.1 hPa | 0 mm | 2.68 m/s, 198° | 0 W/m² | - |
| 1778028947 | 20.56° C | 50% | 1010.3 hPa | 0 mm | 1.79 m/s, 192° | 0 W/m² | - |
| 1778028643 | 20.56° C | 50% | 1010.5 hPa | 0 mm | 2.24 m/s, 198° | 0 W/m² | - |
| 1778028340 | 20.56° C | 51% | 1010.4 hPa | 0 mm | 1.34 m/s, 217° | 0 W/m² | - |
| 1778028047 | 20.56° C | 50% | 1010.5 hPa | 0 mm | 1.79 m/s, 185° | 0 W/m² | - |
| 1778027734 | 20.56° C | 52% | 1010.4 hPa | 0 mm | 1.34 m/s, 208° | 0 W/m² | - |
| 1778027430 | 20.56° C | 51% | 1010.5 hPa | 0 mm | 2.24 m/s, 191° | 0 W/m² | - |
| 1778027126 | 20.56° C | 51% | 1010.6 hPa | 0 mm | 2.24 m/s, 188° | 1 W/m² | - |
| 1778026822 | 20.56° C | 53% | 1010.7 hPa | 0 mm | 1.34 m/s, 194° | 1 W/m² | - |
| 1778026518 | 20.56° C | 53% | 1010.5 hPa | 0 mm | 2.24 m/s, 187° | 2 W/m² | - |
| 1778026216 | 20.56° C | 54% | 1010.6 hPa | 0 mm | 1.34 m/s, 203° | 3 W/m² | - |
| 1778025913 | 20.56° C | 55% | 1010.4 hPa | 0 mm | 1.34 m/s, 182° | 5 W/m² | - |
| 1778025610 | 20.56° C | 55% | 1010.5 hPa | 0 mm | 2.24 m/s, 189° | 6 W/m² | - |
| 1778025308 | 20.56° C | 56% | 1010.3 hPa | 0 mm | 0.89 m/s, 233° | 9 W/m² | - |
| 1778025004 | 20.56° C | 56% | 1010.2 hPa | 0 mm | 1.34 m/s, 188° | 16 W/m² | - |
| 1778024702 | 20.56° C | 56% | 1010.2 hPa | 0 mm | 0.89 m/s, 293° | 16 W/m² | - |
| 1778024398 | 20.56° C | 57% | 1010.1 hPa | 0 mm | 0.89 m/s, 229° | 15 W/m² | - |
| 1778024096 | 20.56° C | 55% | 1010.3 hPa | 0 mm | 1.34 m/s, 178° | 17 W/m² | - |
| 1778023793 | 21.11° C | 55% | 1010.1 hPa | 0 mm | 0.89 m/s, 195° | 26 W/m² | - |
* Rain latest hour (hover to see other rain measurements)
** Current wind speed in m/s (hover to see current wind gust speed)